Location: Newark
(39.1833°N, 3.3000°W)
Time: 02:17:44
(UTC+00:00)

N. Korean satellite - Visible Passes

Search period start: 16 October 2019 00:00
Search period end: 26 October 2019 00:00
Orbit: 455 x 508 km, 97.2° (Epoch: 14 October)

Date Brightness Start Highest point End Pass type
(mag) Time Alt. Az. Time Alt. Az. Time Alt. Az.
16 Oct 10.6 05:01:27 10° E 05:02:00 10° E 05:02:33 10° E visible
17 Oct 9.9 18:15:43 10° SW 18:17:58 17° W 18:20:15 10° NW visible
18 Oct 8.5 05:41:41 10° NNE 05:45:02 36° E 05:48:25 10° SSE visible
19 Oct 9.9 05:17:09 10° NE 05:19:38 17° E 05:22:09 10° SE visible
21 Oct 7.2 05:58:57 10° NNE 06:02:34 65° E 06:06:12 10° S visible
21 Oct 9.6 18:07:28 10° SW 18:10:06 21° W 18:12:45 10° NW visible
22 Oct 8.9 05:34:00 10° NE 05:37:12 29° E 05:40:27 10° SSE visible
23 Oct 10.2 05:09:43 10° ENE 05:11:47 14° E 05:13:50 10° SE visible
24 Oct 10.2 18:26:08 10° WSW 18:27:39 12° W 18:29:10 10° WNW visible
25 Oct 7.7 05:51:09 10° NNE 05:54:43 50° E 05:58:19 10° S visible
25 Oct 9.1 17:59:15 10° SSW 18:02:11 26° W 18:05:09 10° NW visible
